DateTimeUTC,F1_A11,F1_S11,BsB_S11,BsG_S11,BsR_S11,BbsB_S11,BbsG_S11,BbsR_S11,BaB_A11,BaG_A11,BaR_A11,Tu_S11,T_S11,Uu_S11,U_S11,P_S11,T1_A11
2021-03-17T04:00:00Z,00040200,21000000,,,,,,,-000.16,0000.06,-000.18,17.1,24.5,,00.0,0652.1,31.0
2021-03-17T04:01:00Z,00040200,21000000,,,,,,,-000.17,-000.47,-000.42,17.1,24.5,,00.0,0652.1,30.9
2021-03-17T04:02:00Z,00040200,21000000,,,,,,,0000.29,0000.15,0000.32,17.1,24.5,,00.0,0652.1,30.9
2021-03-17T04:03:00Z,00040200,61000000,,,,,,,-000.32,-000.18,0000.16,17.1,24.5,,00.0,0652.1,30.9
2021-03-17T04:04:00Z,00040200,41000000,0000.69,-000.10,0000.06,-000.29,-000.14,-000.19,0000.05,-000.14,-000.56,17.2,24.3,,00.0,0652.9,30.9
2021-03-17T04:05:00Z,00040200,01000000,0000.42,-000.00,-000.07,0000.21,-000.17,-000.11,0000.16,0000.21,0000.24,17.2,24.3,,00.0,0653.0,30.9
2021-03-17T04:06:00Z,00040200,01000000,0001.16,0000.19,0000.17,0000.24,0000.09,0000.00,0000.27,0000.19,0000.37,17.2,24.3,,00.0,0652.9,30.9
2021-03-17T04:07:00Z,00040200,01000000,0000.42,0000.16,0000.12,0000.38,-000.17,-000.14,0000.44,0000.54,0000.02,17.1,24.2,,00.0,0653.0,30.9
2021-03-17T04:08:00Z,00040200,01000000,0000.65,0000.02,-000.07,-000.10,0000.06,-000.02,-000.14,-000.24,0000.07,17.1,24.2,,00.0,0653.0,30.9
2021-03-17T04:09:00Z,00040200,01000000,0000.62,-000.22,-000.02,0000.27,0000.13,0000.14,0000.24,0000.35,0000.53,17.1,24.2,,00.0,0653.0,30.9
2021-03-17T04:10:00Z,00040200,01000000,0000.61,-000.05,0000.22,0000.46,0000.01,0000.08,0000.26,0000.28,0000.32,17.1,24.2,,00.0,0653.0,30.9
2021-03-17T04:11:00Z,00040200,01000000,0000.50,0000.06,0000.14,-000.04,0000.19,0000.21,0000.09,0000.24,-000.10,17.2,24.2,,00.0,0653.0,30.9
2021-03-17T04:12:00Z,00040200,01000000,0000.59,0000.09,-000.07,-000.00,0000.09,0000.04,-000.14,-000.14,-000.32,17.3,24.2,,00.0,0653.0,30.9
2021-03-17T04:13:00Z,00040200,01000000,0000.47,0000.06,-000.09,-000.43,0000.05,-000.03,0000.02,-000.26,0000.32,17.4,24.3,,00.0,0653.0,31.0
2021-03-17T04:14:00Z,00040200,01000000,0000.54,-000.04,0000.11,0000.35,-000.13,-000.06,0000.65,0000.53,0000.03,17.4,24.3,,00.0,0653.0,30.9
2021-03-17T04:15:00Z,00040200,01000000,0000.02,0000.23,0000.00,-000.00,0000.04,-000.06,-000.04,0000.17,0000.38,17.4,24.3,,00.0,0653.0,31.0
2021-03-17T04:16:00Z,00040200,01000000,0001.05,0000.39,0000.03,0000.06,0000.09,0000.08,0000.11,0000.39,0000.08,17.4,24.3,,00.0,0653.0,30.9
2021-03-17T04:17:00Z,00040200,01000000,0000.33,0000.21,0000.14,-000.10,0000.05,0000.40,0000.06,-000.64,-000.46,17.3,24.3,,00.0,0653.1,30.9
2021-03-17T04:18:00Z,00040200,01000000,-000.16,0000.03,-000.18,-000.01,0000.18,0000.04,0000.09,0000.46,0000.32,17.3,24.3,,00.0,0653.1,30.9
2021-03-17T04:19:00Z,00040200,01000000,0000.44,0000.20,0000.04,-000.35,0000.29,-000.07,-000.33,-000.23,0000.02,17.3,24.2,,00.0,0653.1,30.9
2021-03-17T04:20:00Z,00040200,01000000,0000.36,0000.06,0000.10,-000.15,0000.00,-000.10,0000.53,0000.27,0000.15,17.3,24.2,,00.0,0653.0,30.9
2021-03-17T04:21:00Z,00040200,01000000,0000.34,-000.02,-000.10,0000.18,0000.12,0000.03,0000.07,0000.33,-000.14,17.2,24.2,,00.0,0653.0,30.9
2021-03-17T04:22:00Z,00040200,01000000,0000.13,0000.30,0000.34,0000.14,0000.10,0000.27,0000.11,0000.19,0000.29,17.2,24.2,,00.0,0653.0,30.9
2021-03-17T04:23:00Z,00040200,01000000,-000.01,-000.08,0000.06,-000.36,0000.19,0000.04,0000.22,-000.20,-000.25,17.2,24.2,,00.0,0652.9,30.9
2021-03-17T04:24:00Z,00040200,01000000,0000.67,0000.08,0000.02,0000.05,-000.11,0000.15,-000.17,0000.24,0000.37,17.1,24.2,,00.0,0652.9,30.9
2021-03-17T04:25:00Z,00040200,01000000,0000.32,-000.15,0000.12,0000.09,0000.17,0000.10,0000.69,0000.14,0000.19,17.2,24.2,,00.0,0652.9,30.9
2021-03-17T04:26:00Z,00040200,01000000,0000.69,0000.27,-000.12,0000.31,0000.21,-000.23,0000.06,0000.58,0000.32,17.3,24.2,,00.0,0652.9,30.9
2021-03-17T04:27:00Z,00040200,01000000,0000.21,-000.04,0000.09,0000.02,-000.02,-000.08,0000.21,0000.11,0000.27,17.3,24.2,,00.0,0652.9,30.9
2021-03-17T04:28:00Z,00040200,01000000,0000.30,-000.07,0000.00,0000.09,-000.00,0000.03,0000.41,0000.48,0000.10,17.4,24.3,,00.0,0652.9,31.0
2021-03-17T04:29:00Z,00040200,01000000,0000.07,0000.17,-000.05,-000.06,0000.09,-000.02,0000.02,-000.08,0000.12,17.4,24.3,,00.0,0652.8,31.0
2021-03-17T04:30:00Z,00040200,01000000,0000.34,0000.17,0000.05,-000.51,-000.02,0000.13,0000.58,0000.46,0000.45,17.4,24.3,,00.0,0652.8,30.9
2021-03-17T04:31:00Z,00040200,01000000,-000.07,-000.14,0000.19,-000.25,0000.01,0000.02,0000.49,0000.45,0000.21,17.4,24.3,,00.0,0652.8,30.9
2021-03-17T04:32:00Z,00040200,01000000,0000.50,0000.04,0000.26,0000.13,0000.17,0000.03,0000.19,0000.53,0000.53,17.4,24.3,,00.0,0652.8,30.9
2021-03-17T04:33:00Z,00040200,01000000,0000.22,-000.19,0000.07,-000.04,0000.04,0000.11,0000.52,0000.52,0000.02,17.4,24.3,,00.0,0652.8,30.9
2021-03-17T04:34:00Z,00040200,01000000,0000.19,0000.21,0000.09,0000.42,0000.05,0000.01,0000.42,-000.11,0000.29,17.3,24.3,,00.0,0652.8,30.9
2021-03-17T04:35:00Z,00040200,01000000,-000.00,-000.11,-000.04,-000.04,-000.04,0000.00,0000.22,0000.48,0000.20,17.3,24.2,,00.0,0652.7,30.9
2021-03-17T04:36:00Z,00040200,01000000,0000.18,0000.10,0000.02,-000.38,0000.13,0000.05,0000.25,0000.45,0000.21,17.3,24.2,,00.0,0652.7,30.9
2021-03-17T04:37:00Z,00040200,01000000,0000.64,-000.13,-000.05,0000.08,-000.02,0000.19,0000.50,0000.17,0000.37,17.2,24.2,,00.0,0652.7,30.9
2021-03-17T04:38:00Z,00040200,01000000,0000.50,-000.10,0000.16,0000.09,0000.12,0000.18,0000.47,0000.41,0000.42,17.2,24.2,,00.0,0652.6,30.9
2021-03-17T04:39:00Z,00040200,01000000,0000.18,0000.06,0000.31,0000.14,-000.09,-000.10,0000.38,0000.33,0000.40,17.2,24.2,,00.0,0652.6,30.9
2021-03-17T04:40:00Z,00040200,01000000,0000.03,-000.12,0000.04,0000.33,-000.08,0000.39,0000.15,0000.25,-000.28,17.2,24.1,,00.0,0652.6,30.9
2021-03-17T04:41:00Z,00040200,01000000,0000.00,-000.24,-000.16,-000.29,0000.19,-000.09,0000.10,-000.17,0000.58,17.3,24.2,,00.0,0652.6,30.9
2021-03-17T04:42:00Z,00040200,01000000,0000.61,0000.06,0000.05,0000.43,0000.20,0000.02,0000.22,0000.68,-000.13,17.4,24.2,,00.0,0652.6,30.9
2021-03-17T04:43:00Z,00040200,01000000,0000.17,-000.11,0000.14,0000.28,0000.14,0000.15,0000.24,0000.08,0000.53,17.4,24.2,,00.0,0652.6,31.0
2021-03-17T04:44:00Z,00040200,01000000,0000.36,-000.13,0000.28,0000.05,-000.03,0000.01,0000.24,0000.21,0000.10,17.5,24.3,,00.0,0652.6,30.9
2021-03-17T04:45:00Z,00040200,01000000,0000.57,-000.27,-000.03,-000.26,-000.05,0000.25,0000.44,-000.22,-000.36,17.5,24.3,,00.0,0652.6,31.0
2021-03-17T04:46:00Z,00040200,01000000,0000.48,-000.02,-000.06,-000.02,0000.11,0000.10,-000.36,0000.52,0000.48,17.5,24.3,,00.0,0652.6,31.0
2021-03-17T04:47:00Z,00040200,01000000,0000.24,-000.11,0000.47,0000.11,-000.00,0000.08,0000.55,-000.09,-000.30,17.5,24.3,,00.0,0652.5,30.9
2021-03-17T04:48:00Z,00040200,01000000,0000.40,0000.10,0000.20,0000.08,0000.11,0000.11,0000.15,0000.26,0000.38,17.4,24.3,,00.0,0652.5,31.0
2021-03-17T04:49:00Z,00040200,01000000,0000.58,0000.29,0000.21,0000.66,-000.01,-000.08,0000.37,0000.62,0000.40,17.4,24.3,,00.0,0652.5,30.9
2021-03-17T04:50:00Z,00040200,01000000,0000.98,0000.05,0000.22,0000.08,0000.27,-000.06,-000.24,-000.48,-000.07,17.4,24.2,,00.0,0652.5,30.9
2021-03-17T04:51:00Z,00040200,01000000,-000.13,-000.06,0000.07,-000.28,-000.08,0000.03,0000.25,0000.22,0000.10,17.3,24.2,,00.0,0652.5,30.9
2021-03-17T04:52:00Z,00040200,01000000,-000.15,-000.09,-000.05,0000.06,-000.07,-000.23,0000.28,0000.52,0000.06,17.3,24.2,,00.0,0652.4,30.9
2021-03-17T04:53:00Z,00040200,01000000,0000.42,-000.06,0000.29,-000.18,0000.07,0000.01,0000.32,-000.05,0000.44,17.3,24.2,,00.0,0652.4,30.9
2021-03-17T04:54:00Z,00040200,01000000,0000.74,-000.34,0000.20,0000.14,0000.03,0000.03,0000.02,0000.31,0000.06,17.3,24.2,,00.0,0652.4,30.9
2021-03-17T04:55:00Z,00040200,01000000,0000.82,-000.10,0000.28,0000.33,0000.14,-000.07,0000.11,-000.09,-000.04,17.3,24.2,,00.0,0652.4,30.9
2021-03-17T04:56:00Z,00040200,01000000,0000.71,0000.13,0000.28,-000.26,0000.08,0000.11,0000.11,0000.27,-000.00,17.3,24.2,,00.0,0652.3,30.9
2021-03-17T04:57:00Z,00040200,41000000,,,,,,,-001.07,-000.67,-000.91,17.4,24.2,,00.0,0652.4,30.9
2021-03-17T04:58:00Z,00040200,61000000,,,,,,,0000.68,0000.17,0000.90,17.2,24.4,,00.0,0651.4,31.0
2021-03-17T04:59:00Z,00040200,21000000,,,,,,,-000.13,0000.04,-000.21,17.2,24.5,,00.0,0651.4,30.9
